Вернуться в каталог

PEGASUS DEB

АктивенPO
NORAD 39914·DEBRIS·🇺🇸 United States

Запущен May 19, 1994 с Vandenberg Space Force Base

Loading…

Ближайшие Пролёты (ближайшие 24 часа)

TLE

СвежийSource: Space-Track

Эпоха: Sep 14, 2026, 06:01 UTC

1 39914U 94029AFM 26257.25114927  .00002286  00000-0  42468-3 0  9998
2 39914  81.3386 243.6969 0325403 211.5183 146.6150 14.36010417631947

Отслеживайте PEGASUS DEB в реальном времени с AllMySat

Download on the App Store